Current weather by "City, St" or "zip code"  
 

Current Conditions: Charleston, Yeager Airport, WV

Fair


53.0 F

Last Updated on Sep 22 2020, 10:54 pm EDT
Humidity: 89%
Wind Speed: N 0.0 mph
Barometer 30.14 in
Dewpoint: 50.0 F
Visibility: 10.00 mi
Precip: --
Heat Index: NA
Wind Chill: NA
Current conditions at:

Charleston, Yeager Airport, WV (KCRW)

Lat: 38.37944 Lon: 81.59139

Local Radar Image active severe weather and emergency alerts image image weather storm and storm spotter reports image weather observation monitoring service image
Local
Radar
Active
Alerts
Storm Reports Obs
Monitoring

Sign-up For Email & Text Message Weather Alert Notification Services



Advertise Here

Observation History for Charleston, Yeager Airport, WV


Time Wind
(mph)
Vis
(mi)
Weather Precip (in) Temperature (F) Relative
Humidity
Wind
Chill
(F)
Heat
Index
(F)
Pressure
Air Dwpt altimeter
(in)
sea level
(mb)
Rmks
10:54 pm EDT N 0.0 10.00 Fair -- 53.0 50.0 89% NA NA 30.14 1020.4
9:54 pm EDT N 0.0 10.00 A Few Clouds -- 55.0 50.0 83% NA NA 30.15 1020.9
8:54 pm EDT N 0.0 10.00 A Few Clouds -- 57.0 51.1 81% NA NA 30.14 1020.8
7:54 pm EDT SE 3.5 10.00 A Few Clouds -- 60.0 51.1 72% NA NA 30.14 1020.5
6:54 pm EDT N 0.0 10.00 A Few Clouds -- 65.0 48.0 54% NA NA 30.14 1020.4
5:54 pm EDT NW 8.1 10.00 A Few Clouds -- 70.0 46.0 42% NA NA 30.14 1020.4
4:54 pm EDT NW 6.9 10.00 A Few Clouds -- 72.0 45.0 38% NA NA 30.15 1020.6
3:54 pm EDT W 5.8 10.00 Fair -- 72.0 44.1 37% NA NA 30.16 1021.0
2:54 pm EDT 5.8 10.00 A Few Clouds -- 70.0 45.0 41% NA NA 30.18 1021.9
1:54 pm EDT N 0.0 10.00 A Few Clouds -- 69.0 44.1 41% NA NA 30.21 1022.9
12:54 pm EDT 3.5 10.00 Partly Cloudy -- 68.0 46.0 45% NA NA 30.25 1024.1
11:54 am EDT N 0.0 10.00 Fair -- 64.0 46.9 54% NA NA 30.28 1025.0
10:54 am EDT N 0.0 10.00 Fair -- 59.0 48.0 67% NA NA 30.29 1025.6
9:54 am EDT N 0.0 10.00 Fair -- 51.0 46.0 83% NA NA 30.29 1025.8
8:54 am EDT N 0.0 7.00 A Few Clouds -- 45.0 43.0 93% NA NA 30.29 1025.9
7:54 am EDT N 0.0 5.00 Fog/Mist -- 43.0 41.0 93% NA NA 30.30 1026.1
6:54 am EDT N 0.0 4.00 Fog/Mist -- 42.0 41.0 96% NA NA 30.30 1025.8
5:54 am EDT N 0.0 0.50 Fog -- 43.0 42.1 97% NA NA 30.28 1025.4
4:54 am EDT NE 3.5 10.00 A Few Clouds -- 44.0 42.1 93% NA NA 30.28 1025.3
3:54 am EDT N 0.0 10.00 Fair -- 45.0 43.0 93% NA NA 30.29 1025.5
2:54 am EDT N 0.0 10.00 Fair -- 45.0 44.1 97% NA NA 30.30 1025.9
1:54 am EDT N 0.0 10.00 Fair -- 46.0 45.0 96% NA NA 30.31 1026.3
12:54 am EDT N 0.0 10.00 Fair -- 47.0 46.0 97% NA NA 30.32 1026.6
11:54 pm EDT N 0.0 10.00 Fair -- 49.0 46.9 93% NA NA 30.33 1026.9

Regional Weather Observation


Point Pleasant, Mason County Airport, WV (K3I2)

Fair
52.0 F

Huntington, Tri-State Airport, WV (KHTS)

Fair
54.0 F

OHIO U/ATHEN-ALBANY, OH (KUNI)

Fair
50.0 F

Beckley, Raleigh County Memorial Airport, WV (KBKW)

Fair
50.0 F

Pineville, Kee Field Airport, WV (KI16)

Fair
51.0 F

Zanesville, Zanesville Municipal Airport, OH (KZZV)

Fair
52.0 F